Regional Weather Roundup
Issued by NWS

Home | Current Version | Previous Version | Graphics & Text | Print | Product List | Glossary On
Versions: 1 2 3 4 5 6 7 8 9 10 11 12 13 14 15 16 17 18 19 20 21 22 23 24 25 26 27 28 29 30 31 32 33 34 35 36 37 38 39 40 41 42 43 44 45 46 47 48 49 50
000
ASUS43 KFSD 172302
RWRSD

WEATHER ROUNDUP FOR SOUTH DAKOTA
NATIONAL WEATHER SERVICE SIOUX FALLS SD
600 PM CDT THU APR 17 2014

NOTE: "FAIR" INDICATES FEW OR NO CLOUDS BELOW 12,000 FEET WITH NO
SIGNIFICANT WEATHER AND/OR OBSTRUCTIONS TO VISIBILITY.


SDZ001>005-009-010-012>017-180000-
NORTHWEST AND NORTH CENTRAL SOUTH DAKOTA

CITY           SKY/WX    TMP DP  RH WIND       PRES   REMARKS
FAITH            N/A     48  29  47 S22       30.05F
MOBRIDGE       CLOUDY    43  23  45 S17       30.14F
$$

SDZ012>016-024>037-041>051-057-063-072>074-180000-
SOUTHWEST AND SOUTH CENTRAL SOUTH DAKOTA

CITY           SKY/WX    TMP DP  RH WIND       PRES   REMARKS
RAPID CTY ARPT MOSUNNY   53  35  50 SE21G26   29.98F
PIERRE         CLOUDY    46  24  42 S18       30.16F
CUSTER         SUNNY     47  31  53 SW8       29.99F
ELLSWORTH AFB  MOSUNNY   54  36  51 SE18      29.97F
PHILIP         MOSUNNY   51  31  46 SE14G26   30.07F
PINE RIDGE     SUNNY     51  35  54 S14       30.04F
WINNER         CLOUDY    47  28  47 E16       30.17F
$$

SDZ004>011-016>023-039-040-180000-
NORTHEAST SOUTH DAKOTA

CITY           SKY/WX    TMP DP  RH WIND       PRES   REMARKS
ABERDEEN       MOSUNNY   45  18  34 S9        30.24F
WATERTOWN      SUNNY     40  16  37 S5        30.26S
SISSETON         N/A     44  18  35 VRB3      30.26F
$$

SDZ017-020-022-023-036>040-048>070-180000-
SOUTHEAST SOUTH DAKOTA

CITY           SKY/WX    TMP DP  RH WIND       PRES   REMARKS
SIOUX FALLS    PTSUNNY   46  23  40 N6        30.27S
HURON          CLOUDY    45  17  32 SE8       30.25F
CHAMBERLAIN      N/A     45  24  43 S15       30.22R
MITCHELL       PTSUNNY   49  19  30 S8        30.25F
YANKTON        PTSUNNY   48  21  34 NE3       30.27S
$$

ABBREVIATIONS USED IN REMARKS
   TC - TEMPERATURE IN CELSIUS
  WCI - WIND CHILL INDEX
   HX - HEAT INDEX
  VSB - VISIBILITY




USA.gov is the U.S. government's official web portal to all federal, state and local government web resources and services.